Sturgeon Lake, MN

12:03 PM CST on February 23, 2017 (GMT -0600)
Moose Lake-Carlton County

Weather History for KMZH - October, 2011

Change the Weather History Date:

Saturday, October 22, 2011

  Actual Average Record
Temperature  
Mean Temperature 44 °F -  
Max Temperature 57 °F 55 °F 75 °F (1953)
Min Temperature 32 °F 32 °F 18 °F (1969)
Degree Days  
Heating Degree Days 20    
Moisture  
Dew Point 33 °F    
Average Humidity 69    
Maximum Humidity 100    
Minimum Humidity 38    
Precipitation  
Precipitation 0.00 in - - ()
Sea Level Pressure  
Sea Level Pressure 30.02 in    
Wind  
Wind Speed 2 mph (WNW)    
Max Wind Speed 8 mph    
Max Gust Speed -    
Visibility 10 miles    
Events      
Averages and records for this station are not official NWS values.
T = Trace of Precipitation, MM = Missing Value Source: NWS Daily Summary

Daily Weather History Graph

Daily Weather History Graph

Search for Another Location

Airport or City:

Trip Planner

Search our weather history database for the weather conditions in past years. The results will help you decide how hot, cold, wet, or windy it might be!

Date:

Astronomy

Oct. 22, 2011 Rise Set
Actual Time 7:37 AM CDT 6:12 PM CDT
Civil Twilight 7:07 AM CDT 6:43 PM CDT
Nautical Twilight 6:32 AM CDT 7:18 PM CDT
Astronomical Twilight 5:57 AM CDT 7:53 PM CDT
Moon 2:19 AM CDT (10/22) 3:44 PM CDT (10/22)
Length of Visible Light 11h 36m
Length of Day
10h 34m
Waning Crescent, 23% of the Moon is Illuminated
Oct 22
Waning Crescent
Oct 26
New
Nov 2
First Quarter
Nov 10
Full
Nov 18
Last Quarter

Hourly Weather History & Observations

Time (CDT) Temp. Windchill Dew Point Humidity Pressure Visibility Wind Dir Wind Speed Gust Speed Precip Events Conditions
12:12 AM 41.0 °F 37.1 °F 33.8 °F 76% 29.97 in 10.0 mi NW 5.8 mph - N/A   Clear
12:32 AM 42.8 °F 39.3 °F 33.8 °F 70% 29.98 in 10.0 mi NW 5.8 mph - N/A   Clear
12:53 AM 42.8 °F 40.1 °F 33.8 °F 70% 29.98 in 10.0 mi NW 4.6 mph - N/A   Clear
1:12 AM 42.8 °F 40.1 °F 33.8 °F 70% 29.98 in 10.0 mi NW 4.6 mph - N/A   Clear
1:32 AM 41.0 °F - 33.8 °F 76% 29.99 in 10.0 mi Calm Calm - N/A   Clear
2:12 AM 37.4 °F - 32.0 °F 81% 29.99 in 10.0 mi Calm Calm - N/A   Clear
2:32 AM 37.4 °F - 33.8 °F 87% 30.00 in 10.0 mi Calm Calm - N/A   Clear
2:52 AM 35.6 °F - 33.8 °F 93% 30.00 in 10.0 mi Calm Calm - N/A   Clear
3:12 AM 33.8 °F - 32.0 °F 93% 30.01 in 10.0 mi Calm Calm - N/A   Clear
4:12 AM 32.0 °F - 32.0 °F 100% 30.01 in 7.0 mi Calm Calm - N/A   Clear
4:32 AM 33.8 °F - 32.0 °F 93% 30.02 in 10.0 mi Calm Calm - N/A   Clear
4:52 AM 33.8 °F - 32.0 °F 93% 30.02 in 10.0 mi Calm Calm - N/A   Clear
5:12 AM 33.8 °F - 32.0 °F 93% 30.03 in 10.0 mi Calm Calm - N/A   Clear
5:32 AM 33.8 °F - 32.0 °F 93% 30.04 in 10.0 mi Calm Calm - N/A   Clear
5:52 AM 33.8 °F - 32.0 °F 93% 30.04 in 10.0 mi Calm Calm - N/A   Clear
6:13 AM 33.8 °F - 32.0 °F 93% 30.05 in 10.0 mi Calm Calm - N/A   Clear
6:33 AM 32.0 °F - 30.2 °F 93% 30.05 in 7.0 mi Calm Calm - N/A   Clear
6:52 AM 33.8 °F - 32.0 °F 93% 30.06 in 10.0 mi Calm Calm - N/A   Clear
7:12 AM 33.8 °F - 33.8 °F 100% 30.06 in 10.0 mi Calm Calm - N/A   Clear
7:32 AM 33.8 °F - 32.0 °F 93% 30.07 in 10.0 mi Calm Calm - N/A   Clear
7:52 AM 33.8 °F - 33.8 °F 100% 30.07 in 10.0 mi Calm Calm - N/A   Clear
8:12 AM 35.6 °F - 33.8 °F 93% 30.08 in 10.0 mi Calm Calm - N/A   Clear
8:32 AM 35.6 °F - 33.8 °F 93% 30.09 in 10.0 mi Calm Calm - N/A   Clear
8:52 AM 37.4 °F - 35.6 °F 93% 30.08 in 10.0 mi Calm Calm - N/A   Clear
9:13 AM 39.2 °F - 35.6 °F 87% 30.09 in 10.0 mi Calm Calm - N/A   Clear
9:33 AM 41.0 °F - 35.6 °F 81% 30.09 in 10.0 mi Calm Calm - N/A   Clear
9:52 AM 42.8 °F 41.1 °F 35.6 °F 76% 30.09 in 10.0 mi North 3.5 mph - N/A   Clear
10:12 AM 44.6 °F - 35.6 °F 71% 30.10 in 10.0 mi Calm Calm - N/A   Clear
10:32 AM 46.4 °F - 35.6 °F 66% 30.09 in 10.0 mi Calm Calm - N/A   Clear
11:12 AM 50.0 °F - 35.6 °F 58% 30.09 in 10.0 mi North 3.5 mph - N/A   Clear
11:32 AM 50.0 °F - 35.6 °F 58% 30.09 in 10.0 mi Calm Calm - N/A   Clear
11:52 AM 51.8 °F - 35.6 °F 54% 30.09 in 10.0 mi Calm Calm - N/A   Clear
12:12 PM 51.8 °F - 33.8 °F 50% 30.08 in 10.0 mi Calm Calm - N/A   Clear
12:32 PM 53.6 °F - 33.8 °F 47% 30.07 in 10.0 mi North 5.8 mph - N/A   Clear
12:53 PM 53.6 °F - 32.0 °F 44% 30.06 in 10.0 mi Calm Calm - N/A   Clear
1:12 PM 53.6 °F - 32.0 °F 44% 30.06 in 10.0 mi NNW 6.9 mph - N/A   Clear
1:32 PM 55.4 °F - 32.0 °F 41% 30.05 in 10.0 mi Calm Calm - N/A   Clear
1:52 PM 55.4 °F - 32.0 °F 41% 30.04 in 10.0 mi WNW 6.9 mph - N/A   Clear
2:12 PM 55.4 °F - 32.0 °F 41% 30.04 in 10.0 mi NW 4.6 mph - N/A   Clear
2:32 PM 55.4 °F - 32.0 °F 41% 30.03 in 10.0 mi WSW 5.8 mph - N/A   Clear
2:52 PM 55.4 °F - 32.0 °F 41% 30.02 in 10.0 mi WSW 4.6 mph - N/A   Clear
3:12 PM 55.4 °F - 32.0 °F 41% 30.01 in 10.0 mi West 8.1 mph - N/A   Clear
3:32 PM 57.2 °F - 32.0 °F 38% 30.01 in 10.0 mi NNW 3.5 mph - N/A   Clear
3:52 PM 55.4 °F - 32.0 °F 41% 30.01 in 10.0 mi South 3.5 mph - N/A   Clear
4:12 PM 55.4 °F - 30.2 °F 38% 30.00 in 10.0 mi Calm Calm - N/A   Clear
4:32 PM 55.4 °F - 30.2 °F 38% 30.00 in 10.0 mi Calm Calm - N/A   Clear
4:52 PM 55.4 °F - 30.2 °F 38% 30.00 in 10.0 mi Calm Calm - N/A   Clear
5:12 PM 55.4 °F - 30.2 °F 38% 29.99 in 10.0 mi Calm Calm - N/A   Clear
5:32 PM 55.4 °F - 32.0 °F 41% 29.99 in 10.0 mi Calm Calm - N/A   Clear
5:52 PM 53.6 °F - 32.0 °F 44% 29.99 in 10.0 mi WSW 5.8 mph - N/A   Clear
6:12 PM 51.8 °F - 32.0 °F 47% 29.99 in 10.0 mi WSW 4.6 mph - N/A   Clear
6:32 PM 50.0 °F - 32.0 °F 50% 29.99 in 10.0 mi Calm Calm - N/A   Clear
6:52 PM 48.2 °F - 32.0 °F 54% 29.99 in 10.0 mi Calm Calm - N/A   Clear
7:12 PM 42.8 °F - 32.0 °F 66% 29.98 in 10.0 mi Calm Calm - N/A   Clear
7:32 PM 44.6 °F - 32.0 °F 61% 29.98 in 10.0 mi Calm Calm - N/A   Scattered Clouds
7:52 PM 42.8 °F - 33.8 °F 70% 29.98 in 10.0 mi Calm Calm - N/A   Scattered Clouds
8:12 PM 41.0 °F - 32.0 °F 70% 29.97 in 10.0 mi Calm Calm - N/A   Clear
8:32 PM 37.4 °F - 32.0 °F 81% 29.97 in 10.0 mi Calm Calm - N/A   Clear
8:52 PM 37.4 °F - 32.0 °F 81% 29.96 in 10.0 mi Calm Calm - N/A   Clear
9:12 PM 37.4 °F - 32.0 °F 81% 29.96 in 10.0 mi Calm Calm - N/A   Clear
9:32 PM 35.6 °F - 32.0 °F 87% 29.96 in 10.0 mi Calm Calm - N/A   Clear
9:52 PM 35.6 °F - 32.0 °F 87% 29.95 in 10.0 mi Calm Calm - N/A   Clear
10:12 PM 37.4 °F - 32.0 °F 81% 29.94 in 10.0 mi Calm Calm - N/A   Clear
10:32 PM 33.8 °F - 32.0 °F 93% 29.93 in 10.0 mi Calm Calm - N/A   Clear
10:52 PM 32.0 °F - 30.2 °F 93% 29.92 in 10.0 mi Calm Calm - N/A   Clear
11:12 PM 35.6 °F - 32.0 °F 87% 29.91 in 10.0 mi Calm Calm - N/A   Clear
11:32 PM 32.0 °F - 32.0 °F 100% 29.90 in 10.0 mi Calm Calm - N/A   Scattered Clouds
11:52 PM 33.8 °F - 32.0 °F 93% 29.89 in 10.0 mi Calm Calm - N/A   Mostly Cloudy